Weather History for Saratoga Shively Field Airpor, WY

Change the Weather History Date:

Friday, February 21, 2014

  Actual Average Record
Temperature  
Mean Temperature 29 °F -  
Max Temperature 35 °F 38 °F 35 °F (2014)
Min Temperature 23 °F 12 °F 23 °F (2014)
Degree Days  
Heating Degree Days 36    
Moisture  
Dew Point 14 °F    
Average Humidity 56    
Maximum Humidity 69    
Minimum Humidity 38    
Precipitation  
Precipitation 0.00 in - - ()
Sea Level Pressure  
Sea Level Pressure 29.86 in    
Wind  
Wind Speed 25 mph (West)    
Max Wind Speed 37 mph    
Max Gust Speed 47 mph    
Visibility 10 miles    
Events      
Averages and records for this station are not official NWS values.
T = Trace of Precipitation, MM = Missing Value Source: NWS Daily Summary

Daily Weather History Graph

Daily Weather History Graph

Search for Another Location

Airport:

Trip Planner

Search our weather history database for the weather conditions in past years. The results will help you decide how hot, cold, wet, or windy it might be!

Date:

Astronomy

Feb. 21, 2014 Rise Set
Actual Time 6:53 AM MST 5:48 PM MST
Civil Twilight 6:25 AM MST 6:16 PM MST
Nautical Twilight 5:53 AM MST 6:48 PM MST
Astronomical Twilight 5:21 AM MST 7:20 PM MST
Moon No Moon Rise 10:15 AM MST (2/21)
Length of Visible Light 11h 50m
Length of Day
10h 54m
Waning Gibbous, 60% of the Moon is Illuminated
Feb 21
Waning Gibbous
Feb 22
Last Quarter
Mar 1
New
Mar 8
First Quarter
Mar 16
Full

Hourly Weather History & Observations

Time (MST) Temp. Windchill Dew Point Humidity Pressure Visibility Wind Dir Wind Speed Gust Speed Precip Events Conditions
12:16 AM 24.8 °F 9.0 °F 12.2 °F 59% 29.89 in 10.0 mi WSW 25.3 mph 34.5 mph N/A   Scattered Clouds
12:36 AM 24.8 °F 8.4 °F 12.2 °F 59% 29.88 in 10.0 mi WSW 27.6 mph 34.5 mph N/A   Scattered Clouds
12:55 AM 24.8 °F 9.6 °F 12.2 °F 59% 29.88 in 10.0 mi WSW 23.0 mph 31.1 mph N/A   Scattered Clouds
1:16 AM 24.8 °F 11.1 °F 12.2 °F 59% 29.88 in 10.0 mi WSW 18.4 mph 29.9 mph N/A   Scattered Clouds
1:35 AM 24.8 °F 10.0 °F 12.2 °F 59% 29.87 in 10.0 mi WSW 21.9 mph 29.9 mph N/A   Scattered Clouds
1:55 AM 26.6 °F 11.1 °F 12.2 °F 55% 29.86 in 10.0 mi WSW 26.5 mph 33.4 mph N/A   Mostly Cloudy
2:15 AM 24.8 °F 10.3 °F 12.2 °F 59% 29.87 in 10.0 mi WSW 20.7 mph 29.9 mph N/A   Mostly Cloudy
2:35 AM 24.8 °F 9.6 °F 12.2 °F 59% 29.86 in 10.0 mi WSW 23.0 mph 29.9 mph N/A   Mostly Cloudy
2:55 AM 24.8 °F 9.3 °F 14.0 °F 64% 29.86 in 10.0 mi WSW 24.2 mph 33.4 mph N/A   Overcast
3:15 AM 24.8 °F 9.3 °F 14.0 °F 64% 29.86 in 10.0 mi WSW 24.2 mph 35.7 mph N/A   Mostly Cloudy
3:35 AM 24.8 °F 9.6 °F 14.0 °F 64% 29.87 in 10.0 mi WSW 23.0 mph 31.1 mph N/A   Mostly Cloudy
3:55 AM 24.8 °F 10.7 °F 14.0 °F 64% 29.87 in 10.0 mi West 19.6 mph 27.6 mph N/A   Overcast
4:15 AM 24.8 °F 10.7 °F 14.0 °F 64% 29.87 in 10.0 mi West 19.6 mph 26.5 mph N/A   Overcast
4:35 AM 24.8 °F 10.3 °F 14.0 °F 64% 29.88 in 10.0 mi West 20.7 mph 28.8 mph N/A   Mostly Cloudy
4:55 AM 26.6 °F 14.7 °F 15.8 °F 64% 29.89 in 10.0 mi West 15.0 mph 27.6 mph N/A   Mostly Cloudy
5:15 AM 24.8 °F 10.7 °F 14.0 °F 64% 29.89 in 10.0 mi West 19.6 mph 26.5 mph N/A   Mostly Cloudy
5:35 AM 24.8 °F 10.3 °F 14.0 °F 64% 29.89 in 10.0 mi West 20.7 mph 27.6 mph N/A   Scattered Clouds
5:55 AM 24.8 °F 10.0 °F 14.0 °F 64% 29.88 in 10.0 mi West 21.9 mph 29.9 mph N/A   Mostly Cloudy
6:15 AM 24.8 °F 9.0 °F 14.0 °F 64% 29.88 in 10.0 mi West 25.3 mph 32.2 mph N/A   Mostly Cloudy
6:35 AM 23.0 °F 6.9 °F 14.0 °F 68% 29.87 in 10.0 mi West 24.2 mph 32.2 mph N/A   Scattered Clouds
6:55 AM 23.0 °F 7.2 °F 14.0 °F 68% 29.88 in 10.0 mi West 23.0 mph 29.9 mph N/A   Clear
7:15 AM 23.0 °F 6.3 °F 14.0 °F 68% 29.87 in 10.0 mi West 26.5 mph 33.4 mph N/A   Clear
7:35 AM 24.8 °F 8.1 °F 15.8 °F 69% 29.88 in 10.0 mi West 28.8 mph 35.7 mph N/A   Clear
7:56 AM 26.6 °F 10.8 °F 14.0 °F 59% 29.89 in 10.0 mi West 27.6 mph 35.7 mph N/A   Clear
8:15 AM 26.6 °F 10.8 °F 14.0 °F 59% 29.89 in 10.0 mi West 27.6 mph 39.1 mph N/A   Clear
8:35 AM 26.6 °F 12.0 °F 15.8 °F 64% 29.90 in 10.0 mi West 23.0 mph 38.0 mph N/A   Scattered Clouds
8:55 AM 26.6 °F 11.4 °F 15.8 °F 64% 29.89 in 10.0 mi West 25.3 mph 35.7 mph N/A   Scattered Clouds
9:15 AM 28.4 °F 13.3 °F 15.8 °F 59% 29.88 in 10.0 mi West 27.6 mph 39.1 mph N/A   Scattered Clouds
9:35 AM 28.4 °F 12.0 °F 15.8 °F 59% 29.87 in 10.0 mi West 33.4 mph 47.2 mph N/A   Clear
9:55 AM 30.2 °F 14.9 °F 17.6 °F 60% 29.87 in 10.0 mi West 31.1 mph 41.4 mph N/A   Clear
10:15 AM 30.2 °F 14.1 °F 17.6 °F 60% 29.87 in 10.0 mi West 35.7 mph 42.6 mph N/A   Clear
10:35 AM 30.2 °F 14.9 °F 17.6 °F 60% 29.87 in 10.0 mi West 31.1 mph 43.7 mph N/A   Clear
10:55 AM 32.0 °F 17.6 °F 17.6 °F 55% 29.87 in 10.0 mi WSW 29.9 mph 41.4 mph N/A   Scattered Clouds
11:15 AM 32.0 °F 17.6 °F 17.6 °F 55% 29.88 in 10.0 mi West 29.9 mph 36.8 mph N/A   Scattered Clouds
11:35 AM 32.0 °F 16.3 °F 15.8 °F 51% 29.87 in 10.0 mi West 36.8 mph 44.9 mph N/A   Scattered Clouds
11:55 AM 32.0 °F 17.2 °F 15.8 °F 51% 29.86 in 10.0 mi West 32.2 mph 39.1 mph N/A   Scattered Clouds
12:16 PM 33.8 °F 19.0 °F 15.8 °F 48% 29.86 in 10.0 mi West 35.7 mph 43.7 mph N/A   Scattered Clouds
12:35 PM 32.0 °F 17.6 °F 17.6 °F 55% 29.85 in 10.0 mi West 29.9 mph 41.4 mph N/A   Mostly Cloudy
12:55 PM 33.8 °F 19.0 °F 15.8 °F 48% 29.84 in 10.0 mi West 35.7 mph 44.9 mph N/A   Overcast
1:15 PM 33.8 °F 19.9 °F 15.8 °F 48% 29.83 in 10.0 mi West 31.1 mph 42.6 mph N/A   Overcast
1:35 PM 32.0 °F 17.0 °F 14.0 °F 48% 29.83 in 10.0 mi West 33.4 mph 46.0 mph N/A   Overcast
1:55 PM 32.0 °F 17.2 °F 14.0 °F 48% 29.83 in 10.0 mi West 32.2 mph 42.6 mph N/A   Overcast
2:15 PM 33.8 °F 20.5 °F 14.0 °F 44% 29.83 in 10.0 mi West 27.6 mph 39.1 mph N/A   Overcast
2:35 PM 33.8 °F 18.8 °F 14.0 °F 44% 29.83 in 10.0 mi West 36.8 mph 43.7 mph N/A   Overcast
2:55 PM 33.8 °F 20.3 °F 14.0 °F 44% 29.82 in 10.0 mi West 28.8 mph 43.7 mph N/A   Overcast
3:15 PM 33.8 °F 19.0 °F 12.2 °F 41% 29.83 in 10.0 mi West 35.7 mph 42.6 mph N/A   Mostly Cloudy
3:35 PM 35.6 °F 21.9 °F 12.2 °F 38% 29.83 in 10.0 mi West 33.4 mph 41.4 mph N/A   Mostly Cloudy
3:55 PM 33.8 °F 19.9 °F 12.2 °F 41% 29.83 in 10.0 mi West 31.1 mph 43.7 mph N/A   Mostly Cloudy
4:15 PM 33.8 °F 19.6 °F 12.2 °F 41% 29.83 in 10.0 mi West 32.2 mph 41.4 mph N/A   Scattered Clouds
4:35 PM 33.8 °F 20.1 °F 12.2 °F 41% 29.82 in 10.0 mi West 29.9 mph 41.4 mph N/A   Clear
4:55 PM 32.0 °F 17.6 °F 12.2 °F 44% 29.82 in 10.0 mi West 29.9 mph 41.4 mph N/A   Clear
5:15 PM 32.0 °F 18.4 °F 12.2 °F 44% 29.83 in 10.0 mi West 26.5 mph 38.0 mph N/A   Clear
5:35 PM 30.2 °F 17.4 °F 12.2 °F 47% 29.83 in 10.0 mi West 20.7 mph 32.2 mph N/A   Clear
5:55 PM 30.2 °F 14.7 °F 12.2 °F 47% 29.82 in 10.0 mi West 32.2 mph 40.3 mph N/A   Clear
6:16 PM 30.2 °F 16.8 °F 12.2 °F 47% 29.84 in 10.0 mi West 23.0 mph 35.7 mph N/A   Clear
6:35 PM 28.4 °F 18.5 °F 14.0 °F 55% 29.86 in 10.0 mi West 11.5 mph 21.9 mph N/A   Clear
6:55 PM 28.4 °F 17.0 °F 14.0 °F 55% 29.86 in 10.0 mi West 15.0 mph 19.6 mph N/A   Clear
7:15 PM 28.4 °F 15.8 °F 14.0 °F 55% 29.85 in 10.0 mi WSW 18.4 mph 24.2 mph N/A   Clear
7:35 PM 28.4 °F 15.8 °F 14.0 °F 55% 29.85 in 10.0 mi WSW 18.4 mph 23.0 mph N/A   Clear
7:55 PM 28.4 °F 16.2 °F 14.0 °F 55% 29.84 in 10.0 mi WSW 17.3 mph 25.3 mph N/A   Clear
8:15 PM 28.4 °F 17.5 °F 14.0 °F 55% 29.85 in 10.0 mi West 13.8 mph 27.6 mph N/A   Clear
8:35 PM 26.6 °F 15.7 °F 14.0 °F 59% 29.85 in 10.0 mi WSW 12.7 mph - N/A   Clear
8:55 PM 26.6 °F 17.5 °F 14.0 °F 59% 29.85 in 10.0 mi WSW 9.2 mph - N/A   Clear
9:15 PM 26.6 °F 13.4 °F 14.0 °F 59% 29.85 in 10.0 mi WSW 18.4 mph 24.2 mph N/A   Clear
9:35 PM 26.6 °F 13.1 °F 14.0 °F 59% 29.84 in 10.0 mi WSW 19.6 mph 27.6 mph N/A   Clear
9:55 PM 26.6 °F 12.7 °F 15.8 °F 64% 29.83 in 10.0 mi WSW 20.7 mph 28.8 mph N/A   Clear
10:15 PM 26.6 °F 13.8 °F 14.0 °F 59% 29.84 in 10.0 mi WSW 17.3 mph 27.6 mph N/A   Clear
10:35 PM 26.6 °F 13.4 °F 14.0 °F 59% 29.83 in 10.0 mi WSW 18.4 mph 27.6 mph N/A   Clear
10:55 PM 28.4 °F 14.1 °F 14.0 °F 55% 29.82 in 10.0 mi WSW 24.2 mph 27.6 mph N/A   Clear
11:15 PM 28.4 °F 14.1 °F 14.0 °F 55% 29.82 in 10.0 mi WSW 24.2 mph 32.2 mph N/A   Clear
11:35 PM 28.4 °F 14.4 °F 15.8 °F 59% 29.82 in 10.0 mi WSW 23.0 mph 31.1 mph N/A   Clear
11:55 PM 28.4 °F 14.4 °F 14.0 °F 55% 29.82 in 10.0 mi WSW 23.0 mph 29.9 mph N/A   Clear